DW9106 Madrid ES current weather conditions

sailwx.info

Wind from 078 at 0 knots gusting 4

Air temperature 22.8° C
Dewpoint 9.2° C

Last reported at 2014-Oct-30 12:37 UTC.
Time now 2014-Oct-30 13:42 UTC

Location: N 40°23' W 003°38'.
View on Google Maps.

See reports from other nearby stations

  
Tides and Currents Weather Stations Pressure Air Temp Water Temp Dewpoint Dewpoint Depression Visibility Wind Speed Wind Dir Waves Ship Positions
date/time (UTC)wind fromknots sea level pressurealtimeterstation pressurevisibilityair tempwater tempwave heightnotes
2014-Oct-30 12:37 078 0 gusting 4 22.8
2014-Oct-30 12:22 013 0 gusting 2 22.8
2014-Oct-30 12:07 074 22.2
2014-Oct-30 11:52 034 0 gusting 3 21.7
2014-Oct-30 11:37 088 2 gusting 4 21.1
2014-Oct-30 11:22 037 2 gusting 4 20.6
2014-Oct-30 11:07 066 20.6
2014-Oct-30 10:52 059 20.0
2014-Oct-30 10:37 035 0 gusting 2 20.0
2014-Oct-30 10:22 066 0 gusting 3 18.9
2014-Oct-30 10:07 074 18.3
2014-Oct-30 09:51 080 1 gusting 3 17.8
2014-Oct-30 09:36 067 0 gusting 3 17.2
2014-Oct-30 09:21 065 2 gusting 5 16.1
2014-Oct-30 09:06 093 1 gusting 4 16.1
2014-Oct-30 08:51 019 1 gusting 5 15.6
2014-Oct-30 08:36 048 15.0
2014-Oct-30 08:21 040 14.4
2014-Oct-30 08:06 061 0 gusting 3 13.9
2014-Oct-30 07:51 041 0 gusting 4 13.3
2014-Oct-30 07:36 033 12.8
2014-Oct-30 07:21 033 12.2
2014-Oct-30 07:06 032 12.2
2014-Oct-30 06:51 046 12.2
2014-Oct-30 06:36 048 12.2
2014-Oct-30 06:21 048 0 gusting 3 12.2
2014-Oct-30 06:06 033 0 gusting 2 12.8
2014-Oct-30 05:50 066 0 gusting 2 12.8
2014-Oct-30 05:35 057 12.2
2014-Oct-30 05:20 042 12.8
2014-Oct-30 05:05 271 0 gusting 2 12.8
2014-Oct-30 04:50 039 12.8
2014-Oct-30 04:35 040 12.8
2014-Oct-30 04:20 040 12.8
2014-Oct-30 04:05 074 12.8
2014-Oct-30 03:50 061 0 gusting 2 12.8
2014-Oct-30 03:35 053 13.3
2014-Oct-30 03:20 053 13.3
2014-Oct-30 03:05 054 13.3
2014-Oct-30 02:50 054 13.9
2014-Oct-30 02:35 039 1 gusting 4 13.3
2014-Oct-30 02:20 279 13.3
2014-Oct-30 02:05 279 13.9
2014-Oct-30 01:50 327 13.9
2014-Oct-30 01:35 074 13.9
2014-Oct-30 01:20 077 0 gusting 3 14.4
2014-Oct-30 01:05 026 1 gusting 5 14.4
2014-Oct-30 00:50 005 15.0
2014-Oct-30 00:35 005 15.0
2014-Oct-30 00:20 053 0 gusting 3 15.0
2014-Oct-30 00:05 053 15.6
2014-Oct-29 23:50 044 15.6
2014-Oct-29 23:35 044 15.6
2014-Oct-29 23:20 044 15.6
2014-Oct-29 23:05 044 15.6
2014-Oct-29 22:50 044 16.1
2014-Oct-29 22:35 044 16.1
2014-Oct-29 22:20 044 16.7
2014-Oct-29 22:05 044 16.7
2014-Oct-29 21:50 044 17.2
2014-Oct-29 21:35 030 1 gusting 3 16.7
2014-Oct-29 21:20 073 17.2
2014-Oct-29 21:05 073 17.2
2014-Oct-29 20:50 073 17.8
2014-Oct-29 20:35 073 18.3
2014-Oct-29 20:20 009 18.9
2014-Oct-29 20:05 324 18.9
2014-Oct-29 19:50 319 18.9
2014-Oct-29 19:35 281 18.9
2014-Oct-29 19:21 281 18.3
2014-Oct-29 19:05 280 18.9
2014-Oct-29 18:50 281 18.9
2014-Oct-29 18:35 281 19.4
2014-Oct-29 18:20 281 20.0
2014-Oct-29 18:05 281 20.6
2014-Oct-29 17:50 281 21.1
2014-Oct-29 17:35 280 21.7
2014-Oct-29 17:20 280 22.2
2014-Oct-29 17:05 281 22.8
2014-Oct-29 16:50 281 23.3
2014-Oct-29 16:35 216 23.9
2014-Oct-29 16:20 235 23.9
2014-Oct-29 16:05 189 0 gusting 2 23.9
2014-Oct-29 15:50 186 0 gusting 3 23.9
2014-Oct-29 15:35 198 0 gusting 3 23.9
2014-Oct-29 15:20 194 0 gusting 2 23.9
2014-Oct-29 15:05 115 1 gusting 3 24.4
2014-Oct-29 14:49 271 23.9
2014-Oct-29 14:34 150 23.9
2014-Oct-29 14:19 077 3 gusting 6 23.3
2014-Oct-29 14:04 180 22.8
2014-Oct-29 13:49 127 0 gusting 5 23.3
2014-Oct-29 13:34 199 0 gusting 3 23.3
2014-Oct-29 13:19 061 2 gusting 6 22.8
2014-Oct-29 13:04 085 22.2
2014-Oct-29 12:49 138 2 gusting 4 22.2
2014-Oct-29 12:34 124 1 gusting 5 22.2
2014-Oct-29 12:19 117 0 gusting 4 21.7
2014-Oct-29 12:04 125 21.7
2014-Oct-29 11:49 082 1 gusting 5 21.1
2014-Oct-29 11:34 098 21.1
2014-Oct-29 11:19 310 21.1
2014-Oct-29 11:04 058 20.0
2014-Oct-29 10:49 034 20.0
2014-Oct-29 10:34 114 19.4
2014-Oct-29 10:19 020 0 gusting 2 18.9
2014-Oct-29 10:04 034 0 gusting 2 17.8
2014-Oct-29 09:49 055 0 gusting 3 16.7
2014-Oct-29 09:34 073 1 gusting 3 16.7
2014-Oct-29 09:19 080 16.1
2014-Oct-29 09:03 076 15.6
2014-Oct-29 08:48 051 1 gusting 4 15.0
2014-Oct-29 08:33 069 1 gusting 6 14.4
2014-Oct-29 08:18 040 1 gusting 4 13.9
2014-Oct-29 08:03 079 0 gusting 4 13.9
2014-Oct-29 07:48 026 0 gusting 3 13.3
2014-Oct-29 07:33 039 13.3
2014-Oct-29 07:18 034 12.8
2014-Oct-29 07:03 031 12.8
2014-Oct-29 06:48 039 12.8
2014-Oct-29 06:33 024 12.8
2014-Oct-29 06:18 046 12.8
2014-Oct-29 06:03 061 12.8
2014-Oct-29 05:48 038 0 gusting 2 12.8
2014-Oct-29 05:33 076 12.8
2014-Oct-29 05:18 076 12.8
2014-Oct-29 05:03 076 12.8
2014-Oct-29 04:48 076 13.3
2014-Oct-29 04:33 050 0 gusting 2 13.3
2014-Oct-29 04:18 036 13.3
2014-Oct-29 04:03 036 13.9
2014-Oct-29 03:48 041 13.9
2014-Oct-29 03:33 038 0 gusting 3 13.9
2014-Oct-29 03:18 049 13.9
2014-Oct-29 03:03 034 0 gusting 2 13.9
2014-Oct-29 02:48 038 0 gusting 4 13.9
2014-Oct-29 02:33 040 0 gusting 3 14.4
2014-Oct-29 02:18 026 14.4
2014-Oct-29 02:03 040 0 gusting 3 13.9
2014-Oct-29 01:48 034 13.9
2014-Oct-29 01:33 059 13.3
2014-Oct-29 01:17 059 13.9
2014-Oct-29 01:02 055 0 gusting 2 13.9
2014-Oct-29 00:47 105 0 gusting 2 13.9
2014-Oct-29 00:32 276 13.9
2014-Oct-29 00:17 276 13.9
2014-Oct-29 00:02 012 14.4
2014-Oct-28 23:47 012 14.4
2014-Oct-28 23:32 038 14.4
2014-Oct-28 23:17 080 15.0
2014-Oct-28 23:02 080 15.0
2014-Oct-28 22:47 094 15.0
2014-Oct-28 22:32 094 15.0
2014-Oct-28 22:17 094 15.6
2014-Oct-28 22:02 094 15.6
2014-Oct-28 21:47 094 15.6
2014-Oct-28 21:32 284 16.1
2014-Oct-28 21:17 256 16.1
2014-Oct-28 21:02 256 16.1
2014-Oct-28 20:47 255 16.7
2014-Oct-28 20:32 255 16.7
2014-Oct-28 20:17 255 17.2
2014-Oct-28 20:02 255 17.2
2014-Oct-28 19:47 255 17.2
2014-Oct-28 19:32 255 17.2
2014-Oct-28 19:17 255 17.2
2014-Oct-28 19:02 255 17.8
2014-Oct-28 18:47 255 17.8
2014-Oct-28 18:32 255 18.3
2014-Oct-28 18:17 255 18.3
2014-Oct-28 18:02 255 18.9
2014-Oct-28 17:47 255 19.4
2014-Oct-28 17:32 255 19.4
2014-Oct-28 17:17 255 20.0
2014-Oct-28 17:02 255 20.6
2014-Oct-28 16:47 299 0 gusting 2 21.1
2014-Oct-28 16:32 254 21.7
2014-Oct-28 16:17 265 22.2
2014-Oct-28 16:02 262 0 gusting 4 22.2
2014-Oct-28 15:47 071 21.7
2014-Oct-28 15:32 071 22.2
2014-Oct-28 15:17 059 22.2
2014-Oct-28 15:02 059 21.7
2014-Oct-28 14:47 042 1 gusting 4 22.2
2014-Oct-28 14:32 181 22.2
2014-Oct-28 14:17 125 0 gusting 2 22.2
2014-Oct-28 14:02 086 21.7
2014-Oct-28 13:47 146 21.1
2014-Oct-28 13:32 150 21.1
2014-Oct-28 13:17 179 20.6
2014-Oct-28 13:02 084 0 gusting 4 21.1